sat.trackr.live / text

‹ back to catalog

STARLINK-30756

NORAD 58129 · 2023-162M

PAYLOAD ACTIVE UNKNOWN

§ Identity

Operator
Country
US
Launch date
2023-10-22
Launch site
AFETR
Launch vehicle
Mass (kg)
RCS (m²)

Purposes: comms

External: N2YO · Heavens-Above · Gunter

§ Orbital elements

Epoch: 2026-09-19T23:52:17.404032Z

Period
94.27 min
Inclination
43.0029°
Eccentricity
0.0001441
Mean motion
15.27576089 rev/d
Perigee alt
482.1 km
Apogee alt
484.0 km
Semi-major
6,861.2 km
B*
1.3229e-5
RAAN
115.1370°
Arg perigee
266.6778°
Mean anomaly
93.3909°
Rev number
16,202

§ Raw data

STARLINK-307561 58129U 23162M   26262.99464588  .00000102  00000+0  13229-4 0  99932 58129  43.0029 115.1370 0001441 266.6778  93.3909 15.27576089162029

JSON: /api/v1/satellites/58129 · /tle

For live sub-satellite position, see the globe view (requires WebGL).

§ Visibility from observer

Set your observer location to see the next 7 days of passes ≥ 10°. The values pass through the URL so the page stays shareable.

No JS? Fill the form by hand. The geolocation button needs JavaScript.